Lay Lake Weather Center

Moon Phase Calendar



Lay Lake Water Level
Online Cameras

 


      

Current Conditions in Shelby
8/14/2022 5:30:01 PM

90°F
Feels Like 96
Clear
Humidity
52%
Pressure
29.88"
Wind
3 mph (WNW)
Dew Point
70°F
UV Index
1/10 (Low)
Visibility
6 mi

Hourly Forecast

Date & Time Sun, Aug 14
5:00 PM
Sun, Aug 14
6:00 PM
Sun, Aug 14
7:00 PM
Sun, Aug 14
8:00 PM
Sun, Aug 14
9:00 PM
Sun, Aug 14
10:00 PM
Sun, Aug 14
11:00 PM
Mon, Aug 15
12:00 AM
Mon, Aug 15
1:00 AM
Mon, Aug 15
2:00 AM
Mon, Aug 15
3:00 AM
Mon, Aug 15
4:00 AM
Mon, Aug 15
5:00 AM
Mon, Aug 15
6:00 AM
Mon, Aug 15
7:00 AM
Mon, Aug 15
8:00 AM
Mon, Aug 15
9:00 AM
Mon, Aug 15
10:00 AM
Mon, Aug 15
11:00 AM
Mon, Aug 15
12:00 PM
Mon, Aug 15
1:00 PM
Mon, Aug 15
2:00 PM
Mon, Aug 15
3:00 PM
Mon, Aug 15
4:00 PM
Mon, Aug 15
5:00 PM
Mon, Aug 15
6:00 PM
Mon, Aug 15
7:00 PM
Mon, Aug 15
8:00 PM
Mon, Aug 15
9:00 PM
Mon, Aug 15
10:00 PM
Mon, Aug 15
11:00 PM
Tue, Aug 16
12:00 AM
Tue, Aug 16
1:00 AM
Tue, Aug 16
2:00 AM
Tue, Aug 16
3:00 AM
Tue, Aug 16
4:00 AM
Tue, Aug 16
5:00 AM
Tue, Aug 16
6:00 AM
Tue, Aug 16
7:00 AM
Tue, Aug 16
8:00 AM
Tue, Aug 16
9:00 AM
Tue, Aug 16
10:00 AM
Tue, Aug 16
11:00 AM
Tue, Aug 16
12:00 PM
Tue, Aug 16
1:00 PM
Tue, Aug 16
2:00 PM
Tue, Aug 16
3:00 PM
Tue, Aug 16
4:00 PM
Condition
Clear

Clear

Clear

Clear

Clear

Clear

Clear

Clear

Clouds

Clouds

Clouds

Clouds

Clouds

Clouds

Clouds

Clouds

Clouds

Clouds

Clouds

Clouds

Clouds

Clouds

Clouds

Clouds

Clouds

Clouds

Clouds

Clear

Clouds

Clouds

Clouds

Clouds

Rain

Rain

Clear

Clear

Clear

Clear

Clear

Clouds

Clouds

Clouds

Clouds

Clouds

Clouds

Clouds

Clouds

Clouds
Temperature 91°F90°F89°F86°F83°F79°F75°F74°F73°F72°F72°F71°F71°F71°F73°F77°F82°F87°F90°F93°F95°F96°F97°F96°F95°F93°F86°F82°F81°F79°F79°F78°F75°F73°F73°F72°F71°F71°F72°F76°F80°F85°F89°F92°F94°F96°F96°F95°F
Feels Like 95°F96°F93°F89°F85°F79°F75°F74°F73°F73°F72°F72°F72°F72°F74°F78°F85°F91°F93°F95°F96°F97°F97°F97°F96°F96°F89°F84°F83°F79°F79°F79°F76°F74°F74°F73°F72°F72°F73°F78°F83°F89°F92°F94°F95°F96°F95°F95°F
Cloudiness 2%2%2%2%2%3%7%6%14%20%32%40%54%58%56%48%69%65%74%79%81%59%61%64%52%48%43%10%11%32%47%51%45%4%7%8%8%8%8%95%97%98%99%99%99%86%77%56%
Visibility 6 mi6 mi6 mi6 mi6 mi6 mi6 mi6 mi6 mi6 mi6 mi6 mi6 mi6 mi6 mi6 mi6 mi6 mi6 mi6 mi6 mi6 mi6 mi6 mi6 mi6 mi6 mi6 mi6 mi6 mi6 mi6 mi6 mi6 mi6 mi6 mi6 mi6 mi6 mi6 mi6 mi6 mi6 mi6 mi6 mi6 mi6 mi6 mi
Precipitation 0%0%0%0%0%0%0%0%0%0%0%0%0%0%0%20%8%4%4%0%0%0%0%0%0%0%0%0%4%4%0%4%39%22%16%8%8%8%8%0%0%0%0%0%0%0%0%0%
Humidity 48%52%53%53%55%58%63%68%71%74%77%80%83%86%84%75%66%53%45%38%34%32%31%32%33%41%54%56%58%65%65%68%77%85%87%89%91%92%89%79%68%57%49%41%34%31%29%29%
Dew Point 68°F70°F69°F67°F65°F63°F62°F62°F63°F63°F64°F65°F65°F66°F68°F69°F69°F68°F66°F64°F62°F62°F62°F62°F62°F66°F68°F65°F65°F66°F67°F67°F67°F68°F68°F68°F68°F68°F69°F69°F69°F68°F68°F65°F62°F60°F59°F58°F
Pressure 29.88"29.88"29.88"29.88"29.91"29.94"29.94"29.94"29.91"29.91"29.88"29.88"29.88"29.88"29.91"29.91"29.91"29.91"29.91"29.91"29.88"29.85"29.85"29.83"29.83"29.8"29.8"29.8"29.83"29.85"29.85"29.85"29.85"29.85"29.85"29.85"29.85"29.85"29.88"29.88"29.91"29.91"29.91"29.88"29.88"29.88"29.85"29.85"
Wind Speed 2.9 mph3 mph1.8 mph1.8 mph2.7 mph3 mph3.9 mph3.2 mph2.7 mph3.3 mph3.1 mph3.2 mph2.2 mph2.4 mph2.9 mph3.1 mph3.9 mph5 mph5.8 mph6.6 mph6.9 mph7.2 mph7.4 mph7.6 mph7.5 mph4.9 mph1.4 mph1.4 mph0.9 mph4.9 mph2.7 mph3 mph3.8 mph2.7 mph1.7 mph1.1 mph1.7 mph2 mph3.2 mph3.3 mph3.7 mph3.6 mph4.6 mph5.5 mph6.4 mph7.4 mph7.5 mph7.5 mph
Wind
Direction
278°
W
297°
WNW
326°
NW
80°
E
107°
ESE
125°
SE
142°
SE
143°
SE
146°
SE
164°
SSE
166°
SSE
171°
S
192°
SSW
191°
S
202°
SSW
218°
SW
234°
SW
252°
WSW
260°
W
270°
W
279°
W
285°
WNW
291°
WNW
293°
WNW
301°
WNW
313°
NW
15°
NNE
40°
NE
158°
SSE
288°
WNW
24°
NNE
10°
N
288°
WNW
298°
WNW
319°
NW
251°
WSW
338°
NNW
343°
NNW

N
10°
N

N

N
347°
NNW
333°
NNW
336°
NNW
342°
NNW
344°
NNW
347°
NNW

Daily Forecast

Date High Low Precip. Humidity
Today
Aug 14

Clouds
93 °F
68 °F
0%
41%
Monday
Aug 15

Clouds
97 °F
71 °F
20%
38%
Tuesday
Aug 16

Rain
95 °F
71 °F
39%
34%
Wednesday
Aug 17

Rain
95 °F
68 °F
100%
43%
Thursday
Aug 18

Rain
80 °F
69 °F
100%
97%
Friday
Aug 19

Rain
81 °F
68 °F
100%
71%
Saturday
Aug 20

Rain
88 °F
70 °F
100%
60%
Sunday
Aug 21

Rain
90 °F
69 °F
100%
56%
Monday
Aug 22

Rain
85 °F
69 °F
96%
62%
Tuesday
Aug 23

Rain
89 °F
68 °F
83%
57%
Wednesday
Aug 24

Rain
92 °F
69 °F
91%
48%
Thursday
Aug 25

Rain
90 °F
70 °F
100%
50%
Friday
Aug 26

Rain
88 °F
70 °F
82%
68%
Saturday
Aug 27

Rain
89 °F
71 °F
77%
56%
Sunday
Aug 28

Rain
92 °F
72 °F
59%
46%
Monday
Aug 29

Rain
94 °F
72 °F
59%
45%

Temperature 8-14 Day Outlook



Precipitation 8-14 Day Outlook




Quick Links
Lay Lake News
Lay Lake Photos
Lay Lake Videos




About Us
Contact Us
Site Map
Search Site
Advertise With Us
   
www.LayLake.info
THE LAY LAKE WEBSITE

Copyright 2022, Lakes Online
Privacy    |    Legal